Location: Ash Swamp
(41.5170°N, 74.6157°W)
Time: 17:21:07
(UTC+00:00)

Cosmos 405 Rocket - Pass Details

Date: 14 July 2020
Orbit: 489 x 555 km, 81.3° (Epoch: 05 August)

Event Time Altitude Azimuth Distance (km) Brightness Sun altitude
Exits shadow 07:13:31 21° 289° (WNW) 1,208 4.4 -20.2°
Drops below altitude 10° 07:16:20 10° 338° (NNW) 1,725 5.8 -19.9°
Sets 07:18:52 0° 355° (N) 2,604 7.1 -19.6°
